GW2525 Weather Reports


Display with metric or nautical units.
time (UTC)temp
F
wind
direction
speed
MPH
gust
MPH
rain 1hr
in
rain 24hr
in
rain mn
in
humidity
%
barometer
mb
20260504192003 56 262 2.0 4.0 0.00 0.17 0.16 96 1009.2
20260504191503 56 241 1.0 4.0 0.00 0.17 0.16 96 1009.1
20260504191003 56 214 0.0 1.0 0.00 0.17 0.16 95 1008.9
20260504190713 56 214 1.0 2.0 0.00 0.17 0.16 95 1008.9
20260504190005 56 207 1.0 3.0 0.00 0.17 0.16 95 1008.9
20260504185503 57 189 0.0 3.0 0.00 0.17 0.16 95 1008.9
20260504185004 57 163 0.0 2.0 0.00 0.17 0.16 95 1008.7
20260504184504 57 163 0.0 2.0 0.00 0.17 0.16 95 1008.6
20260504184003 57 163 0.0 2.0 0.00 0.17 0.16 95 1008.6
20260504183503 57 163 1.0 4.0 0.00 0.17 0.16 95 1008.5
20260504183004 57 150 1.0 4.0 0.00 0.17 0.16 94 1008.5
20260504182715 58 147 1.0 4.0 0.00 0.17 0.16 94 1008.6
20260504182003 58 118 0.0 1.0 0.00 0.17 0.16 94 1008.5
20260504181503 58 118 1.0 2.0 0.00 0.17 0.16 94 1008.5
20260504181003 58 116 2.0 4.0 0.00 0.17 0.16 94 1008.5
20260504180504 58 109 3.0 6.0 0.00 0.17 0.16 94 1008.5
20260504180004 58 105 3.0 6.0 0.00 0.17 0.16 94 1008.5
20260504175714 58 104 3.0 6.0 0.00 0.17 0.16 93 1008.5
20260504175003 58 115 2.0 4.0 0.00 0.17 0.16 93 1008.6
20260504174503 58 137 2.0 6.0 0.00 0.17 0.16 92 1008.8
20260504174003 58 146 3.0 6.0 0.00 0.17 0.16 92 1008.8
20260504173503 58 141 3.0 6.0 0.00 0.17 0.16 92 1008.8
20260504173004 58 136 2.0 5.0 0.00 0.17 0.16 92 1008.6
20260504172506 58 124 3.0 8.0 0.00 0.17 0.16 92 1008.6
20260504172004 58 129 3.0 8.0 0.00 0.17 0.16 92 1008.6
20260504171714 58 127 3.0 8.0 0.00 0.17 0.16 92 1008.6
20260504171004 58 120 4.0 8.0 0.00 0.17 0.16 93 1008.7
20260504170504 58 122 3.0 8.0 0.00 0.17 0.16 93 1008.9
20260504170215 58 115 3.0 8.0 0.00 0.17 0.16 93 1008.9
20260504150503 59 74 0.0 5.0 0.05 0.12 0.10 95 1009.3
20260504141003 60 107 2.0 4.0 0.04 0.07 0.06 94 1009.3
20260504140504 60 97 2.0 6.0 0.04 0.07 0.06 94 1009.1
20260504130504 62 99 8.0 14.0 0.01 0.03 0.02 85 1009.2
20260504110714 67 126 2.0 6.0 0.00 0.02 0.01 61 1010.2
20260504100503 66 281 5.0 12.0 0.00 0.02 0.01 64 1010.6
20260504082004 64 289 6.0 13.0 0.00 0.02 0.01 71 1010.3
20260504081503 63 266 7.0 13.0 0.00 0.02 0.01 72 1010.3
20260504081003 63 272 7.0 13.0 0.00 0.02 0.01 72 1010.4
20260504080713 62 275 8.0 13.0 0.00 0.02 0.01 72 1010.4
20260504060215 57 339 2.0 10.0 0.00 0.02 0.01 91 1010.9
20260504050503 51 285 2.0 4.0 0.00 0.02 0.01 97 1011.1
20260504050215 52 292 3.0 4.0 0.00 0.02 0.01 97 1011.1
20260504045504 51 297 3.0 4.0 0.00 0.02 0.01 98 1011.1
20260504045003 51 286 3.0 5.0 0.00 0.02 0.01 97 1011.1
20260504044504 51 272 2.0 5.0 0.00 0.02 0.01 97 1011.1
20260504044004 51 276 1.0 5.0 0.00 0.02 0.01 98 1011.2
20260504043503 51 251 1.0 4.0 0.00 0.02 0.01 97 1011.2
20260504043004 51 238 1.0 3.0 0.00 0.02 0.01 97 1011.3
20260504042713 51 255 2.0 6.0 0.00 0.02 0.01 97 1011.4
20260504042003 51 283 3.0 6.0 0.00 0.02 0.01 97 1011.4
20260504041504 51 288 3.0 5.0 0.00 0.02 0.01 97 1011.3
20260504041003 51 280 2.0 6.0 0.00 0.02 0.01 98 1011.4
20260504040503 51 282 2.0 6.0 0.00 0.02 0.01 97 1011.5
20260504040004 51 274 1.0 4.0 0.00 0.02 0.01 98 1011.4
20260504035713 51 261 1.0 3.0 0.00 0.02 0.01 98 1011.4
20260504035004 51 254 1.0 3.0 0.00 0.02 0.01 97 1011.6
20260504034504 51 265 1.0 3.0 0.00 0.02 0.01 97 1011.5
20260504034003 51 285 1.0 6.0 0.00 0.02 0.01 97 1011.7
20260504033713 51 286 2.0 6.0 0.00 0.02 0.01 98 1011.7
20260504033214 51 284 3.0 7.0 0.00 0.02 0.01 97 1011.8
20260504032713 51 293 4.0 7.0 0.00 0.02 0.01 97 1011.8
20260504032004 51 307 1.0 7.0 0.00 0.02 0.01 97 1011.8
20260504031503 51 310 0.0 3.0 0.00 0.02 0.01 97 1011.7
20260504031004 51 304 1.0 2.0 0.00 0.02 0.01 97 1011.8
20260504030503 51 304 1.0 3.0 0.00 0.02 0.01 97 1011.7
20260504030214 51 301 2.0 3.0 0.00 0.02 0.01 97 1011.8
20260504025503 51 280 2.0 4.0 0.00 0.02 0.01 97 1011.9
20260504025003 51 267 1.0 4.0 0.00 0.02 0.01 97 1011.9
20260504024503 51 262 1.0 3.0 0.00 0.02 0.01 97 1011.9
20260504024003 52 262 1.0 3.0 0.00 0.02 0.01 97 1011.9
20260504023715 52 236 1.0 3.0 0.00 0.02 0.01 97 1011.9
20260504023004 52 169 1.0 3.0 0.00 0.02 0.01 97 1011.9
20260504022504 52 154 1.0 3.0 0.00 0.02 0.01 97 1011.8
20260504022003 52 154 1.0 5.0 0.00 0.02 0.01 97 1011.8
20260504021503 52 143 2.0 5.0 0.00 0.02 0.01 97 1011.9
20260504021003 52 143 2.0 5.0 0.00 0.02 0.01 97 1012.0
20260504020503 52 157 1.0 3.0 0.00 0.02 0.01 97 1011.9
20260504020005 52 157 1.0 3.0 0.00 0.02 0.01 97 1011.9
20260504015504 52 155 1.0 3.0 0.00 0.02 0.01 97 1011.9
20260504015213 53 155 1.0 3.0 0.00 0.02 0.01 97 1011.9
20260504014714 53 153 0.0 2.0 0.00 0.02 0.01 97 1011.8
20260504014003 53 193 1.0 4.0 0.00 0.02 0.01 97 1011.9
20260504013503 53 245 1.0 4.0 0.00 0.02 0.01 97 1011.9
20260504013004 53 300 1.0 4.0 0.00 0.02 0.01 97 1011.9
20260504012503 53 262 1.0 4.0 0.00 0.02 0.01 97 1011.9
20260504012003 53 222 1.0 4.0 0.00 0.02 0.01 97 1012.0
20260504011503 53 222 1.0 4.0 0.00 0.02 0.01 97 1012.1
20260504011004 53 285 0.0 1.0 0.00 0.02 0.01 97 1012.2
20260504010714 53 285 0.0 1.0 0.00 0.02 0.01 97 1012.2
20260504010004 53 284 1.0 3.0 0.00 0.02 0.01 97 1012.2
20260504005504 53 284 1.0 4.0 0.00 0.02 0.01 97 1012.4
20260504005004 53 271 2.0 5.0 0.00 0.02 0.01 97 1012.3
20260504004504 53 265 3.0 5.0 0.00 0.02 0.01 97 1012.3
20260504004213 53 265 2.0 5.0 0.00 0.02 0.01 97 1012.4
20260504003504 53 55 0.0 3.0 0.00 0.02 0.01 97 1012.4
20260504003004 53 221 1.0 3.0 0.00 0.02 0.01 97 1012.5
20260504002504 53 228 0.0 3.0 0.00 0.02 0.01 97 1012.5
20260504002003 53 228 0.0 1.0 0.00 0.02 0.01 97 1012.5
20260504001504 53 228 0.0 1.0 0.00 0.02 0.01 97 1012.6
20260504001003 53 228 0.0 2.0 0.00 0.02 0.01 97 1012.6
20260504000503 53 175 1.0 3.0 0.00 0.02 0.01 97 1012.6
20260504000215 53 145 1.0 3.0 0.00 0.02 0.01 97 1012.6
20260503235504 53 117 1.0 3.0 0.00 0.02 0.01 97 1012.7
20260503235003 54 116 0.0 2.0 0.00 0.02 0.01 97 1012.8
20260503234503 54 116 0.0 1.0 0.00 0.02 0.01 97 1012.8
20260503234003 54 116 0.0 1.0 0.00 0.02 0.01 97 1012.9
20260503233503 54 116 0.0 2.0 0.00 0.02 0.01 97 1012.9
20260503233004 54 116 0.0 2.0 0.00 0.02 0.01 97 1013.0
20260503232503 54 116 0.0 1.0 0.01 0.02 0.01 97 1013.0
20260503232004 54 116 0.0 1.0 0.01 0.02 0.01 97 1013.1
20260503231713 54 116 0.0 1.0 0.01 0.02 0.01 97 1013.1
20260503231004 54 116 0.0 1.0 0.01 0.02 0.01 97 1013.2
20260503230503 54 116 1.0 2.0 0.01 0.02 0.01 96 1013.3
20260503230004 54 116 0.0 2.0 0.01 0.02 0.01 96 1013.3
20260503225503 54 116 0.0 1.0 0.01 0.02 0.01 96 1013.3
20260503225004 54 0 0.0 0.0 0.01 0.02 0.01 96 1013.4
20260503224503 54 116 0.0 1.0 0.01 0.02 0.01 96 1013.5
20260503224004 54 116 0.0 1.0 0.02 0.02 0.01 96 1013.6
20260503223504 54 0 0.0 0.0 0.02 0.02 0.01 96 1013.6
20260503223004 54 0 0.0 0.0 0.02 0.02 0.01 96 1013.6
20260503222503 54 117 0.0 1.0 0.01 0.02 0.00 96 1013.7
20260503222003 54 117 0.0 1.0 0.01 0.02 0.00 96 1013.7
20260503221503 54 117 0.0 1.0 0.01 0.02 0.00 96 1013.8
20260503221003 54 117 0.0 3.0 0.01 0.02 0.00 96 1013.7
20260503220504 54 116 1.0 3.0 0.01 0.02 0.00 96 1013.8
20260503220005 54 116 2.0 3.0 0.01 0.02 0.00 96 1013.8
20260503215503 54 118 2.0 3.0 0.01 0.02 0.02 96 1013.8
20260503215214 54 119 2.0 4.0 0.01 0.02 0.02 96 1013.8
20260503214504 54 120 3.0 5.0 0.01 0.02 0.02 96 1013.8
20260503214004 54 121 2.0 5.0 0.00 0.01 0.01 95 1013.8
20260503213504 54 127 1.0 4.0 0.00 0.01 0.01 95 1013.8
20260503213004 54 133 1.0 3.0 0.00 0.01 0.01 95 1013.9
20260503212503 54 133 1.0 3.0 0.00 0.01 0.01 95 1013.7
20260503212004 54 133 1.0 3.0 0.00 0.01 0.01 95 1013.8
20260503211504 54 133 0.0 3.0 0.00 0.01 0.01 95 1013.8
20260503211004 54 133 0.0 2.0 0.00 0.01 0.01 95 1013.8
20260503210503 54 133 1.0 2.0 0.00 0.01 0.01 95 1013.9
20260503210005 54 133 1.0 3.0 0.00 0.01 0.01 94 1014.0
20260503205503 54 124 2.0 7.0 0.00 0.01 0.01 94 1013.9
20260503205003 54 122 2.0 7.0 0.00 0.01 0.01 94 1013.9
20260503204503 54 127 0.0 4.0 0.00 0.01 0.01 94 1013.9
20260503204004 54 98 0.0 1.0 0.00 0.01 0.01 93 1013.9
20260503203503 54 98 0.0 1.0 0.00 0.01 0.01 93 1013.9
20260503203004 54 0 0.0 0.0 0.00 0.01 0.01 93 1013.9
20260503202503 54 0 0.0 0.0 0.00 0.01 0.01 93 1013.9
20260503202003 54 0 0.0 0.0 0.00 0.01 0.01 93 1013.8
20260503201504 54 0 0.0 0.0 0.00 0.01 0.01 93 1013.7
20260503201003 54 0 0.0 0.0 0.00 0.01 0.01 93 1013.7
20260503200714 54 0 0.0 0.0 0.00 0.01 0.01 93 1013.6
20260503200215 54 0 0.0 0.0 0.00 0.01 0.01 93 1013.6
20260503195503 54 96 0.0 1.0 0.00 0.01 0.01 93 1013.5
20260503195004 54 96 0.0 1.0 0.00 0.01 0.01 92 1013.5
20260503194504 54 96 0.0 1.0 0.00 0.01 0.01 92 1013.4
20260503194213 54 96 0.0 2.0 0.00 0.01 0.01 92 1013.5
20260503193503 54 96 1.0 2.0 0.00 0.01 0.01 92 1013.3
20260503193215 54 96 0.0 2.0 0.00 0.01 0.01 91 1013.3
20260503192504 54 96 0.0 2.0 0.00 0.01 0.01 91 1013.1